Lexington Weather

Lexington, Massachusetts, USA

70°F
8/17/2022 5:43pm 
  • Lexington Conditions: Overcast
  • Temperature: 70.0°F / 21.1°CColder 0.7°F than last hour.
  • Dew Point: 58.5°FIncreased 0.6°Fsince last hour.
  • Relative Humidity: 67%Increased 3.0% since last hour.
  • Wind: Calm, 10-min avg: Calm, gust: 2 mph
  • Barometer: 29.86 inFalling 0.02  inHg/hr Falling Slowly
  • Visibility: 10 miles
  • Rain Today: 0.00 in
  •   

Regional Weather Roundup
for Boston, MA

        
000
ASUS41 KBOX 140110
RWRBOX

REGIONAL WEATHER ROUNDUP
NATIONAL WEATHER SERVICE BOSTON/NORTON MA
900 PM EDT SAT AUG 13 2022

NOTE:  "FAIR" INDICATES FEW OR NO CLOUDS BELOW 12,000 FEET WITH NO 
SIGNIFICANT WEATHER AND/OR OBSTRUCTIONS TO VISIBILITY.

MAZALL-140200-
EASTERN MASSACHUSETTS
  
CITY           SKY/WX    TMP DP  RH WIND       PRES   REMARKS
BOSTON         PTCLDY    65  56  72 S3        30.06S                  
BEVERLY        CLEAR     63  56  78 CALM      30.05S                  
LAWRENCE       CLEAR     67  55  65 CALM      30.08R                  
BEDFORD        MOCLDY    68  55  63 S3        30.05R                  
BLUE HILL      NOT AVBL                                               
NORWOOD        MOCLDY    65  54  67 CALM      30.06R                  
MARSHFIELD     CLEAR     61  57  88 CALM      30.05S                  
PLYMOUTH       CLEAR     63  57  81 CALM      30.06S                  
TAUNTON          N/A    N/A N/A N/A MISG      30.06R                  
NEW BEDFORD    MOCLDY    65  58  78 CALM      30.06R                  
$$

MAZALL-140200-
CAPE COD AND THE ISLANDS
  
CITY           SKY/WX    TMP DP  RH WIND       PRES   REMARKS
FALMOUTH       CLEAR     63  61  94 CALM      30.05S                  
HYANNIS        PTCLDY    65  61  87 N5        30.04R                  
CHATHAM        CLEAR     66  61  84 CALM      30.05R                  
NANTUCKET      CLEAR     65  62  90 CALM      30.05R                  
MARTHAS VNYRD  CLEAR     60  56  86 SW3       30.06R                  
$$
 
MAZALL-140200-
CENTRAL AND WESTERN MASSACHUSETTS
  
CITY           SKY/WX    TMP DP  RH WIND       PRES   REMARKS
WORCESTER      MOCLDY    67  51  56 NW6       30.09R                  
FITCHBURG      PTCLDY    66  50  56 N6        30.07R                  
ORANGE         CLOUDY    66  54  65 CALM      30.09R                  
SPRINGFIELD    PTCLDY    59  54  83 NE5       30.05R                  
WESTFIELD      PTCLDY    64  53  67 CALM      30.07R                  
NORTH ADAMS    CLEAR     59  54  83 CALM      30.10R                  
PITTSFIELD     CLEAR     57  52  83 CALM      30.10R                  
$$
 
RIZALL-140200-
RHODE ISLAND
  
CITY           SKY/WX    TMP DP  RH WIND       PRES   REMARKS
PROVIDENCE     PTCLDY    68  57  68 CALM      30.07R                  
NEWPORT        PTCLDY    64  56  75 CALM      30.06R                  
BLOCK ISLAND   MOCLDY    68  57  68 SW3       30.07R                  
SMITHFIELD     PTCLDY    61  56  83 SE5       30.08R                  
WESTERLY       PTCLDY    66  58  75 CALM      30.06R                  
$$
 
CTZALL-140200-
CONNECTICUT
  
CITY           SKY/WX    TMP DP  RH WIND       PRES   REMARKS
BRADLEY INTL   PTCLDY    66  54  65 NW5       30.07R                  
HARTFORD       PTCLDY    73  51  46 N5        30.06R                  
BRIDGEPORT     MOCLDY    73  54  51 CALM      30.07R                  
DANBURY        MOCLDY    65  52  62 CALM      30.10R                  
GROTON         CLEAR     67  54  63 NW3       30.06R                  
NEW HAVEN      CLOUDY    73  55  53 CALM      30.08R                  
CHESTER        FAIR      64  52  63 CALM      30.08R                  
MERIDEN        PTCLDY    65  53  65 CALM      30.07R                  
WILLIMANTIC    CLOUDY    65  56  72 CALM      30.07R                  
OXFORD         CLEAR     63  51  65 CALM      30.10R                  
$$

MEZ002-015-021-024-NHZ003-005-008-011-012-014-VTZ005-008-140200-
NORTHERN NEW ENGLAND
  
CITY           SKY/WX    TMP DP  RH WIND       PRES   REMARKS
PORTLAND ME    MOCLDY    67  55  65 CALM      30.05R                  
BANGOR ME      CLOUDY    70  57  63 N5        30.03R                  
CONCORD NH     CLEAR     66  53  63 NW5       30.06S                  
MANCHESTER NH  MOCLDY    73  51  46 NW8       30.05R                  
NASHUA NH      MOCLDY    70  53  54 NW6       30.07R                  
PORTSMOUTH NH  MOCLDY    63  53  70 CALM      30.05R                  
JAFFREY NH     MOCLDY    65  53  65 CALM      30.10R                  
KEENE NH       CLOUDY    63  58  83 CALM        N/A                   
BURLINGTON VT  PTCLDY    68  50  52 CALM      30.09R                  
MT. WASHINGTON MOCLDY    45  39  81 N8          N/A                   
$$

NYZ052-076-140200-
EASTERN NEW YORK
  
CITY           SKY/WX    TMP DP  RH WIND       PRES   REMARKS
ALBANY         MOCLDY    68  53  58 CALM      30.08R                  
NEW YORK CITY  PTCLDY    76  47  35 E7        30.06R                  
$$
 
ANZALL-140200-
MARINE OBSERVATIONS
  
STATION/POSITION TIME  TEMP    WIND        PRES    VSBY  WAVE
                       AIR SEA DIR/SP/G                  HT/PER
                 (UTC) (F)     (DEG/KT/KT) (MB)    (MI)  (FT/S)
BOSTON BUOY      NOT AVBL
BUZZARDS BAY     NOT AVBL
NANTUCKET SOUND  NOT AVBL
MASS BAY-STELLWA NOT AVBL
ISLE OF SHOALS   NOT AVBL
S OF BLOCK IS    NOT AVBL
$$

......................KEY.........................
  SKY/WX - SKY CONDITION/PRESENT WEATHER
  TMP    - TEMPERATURE IN FAHRENHEIT
  DWPT   - DEWPOINT IN FAHRENHEIT
  RH     - RELATIVE HUMIDITY IN PERCENT
  WIND   - DIRECTION AND SPEED IN MPH
  PRES   - MEAN SEA LEVEL PRESSURE IN INCHES OF HG
  WCI    - WIND CHILL INDEX
  VSB    - VISIBILITY IN MILES
  HX     - HEAT INDEX
  TC     - TEMPERATURE IN CELSIUS
  VRB    - VARIABLE WIND DIRECTION
  N/A    - NOT AVAILABLE
  
      

Other recent Regional Weather Roundups

Wed Aug 17, 5:10pm

Wed Aug 17, 4:10pm

Wed Aug 17, 3:10pm

Wed Aug 17, 2:10pm

Wed Aug 17, 1:10pm

Wed Aug 17, 12:10pm

Wed Aug 17, 11:10am

Wed Aug 17, 10:10am

Wed Aug 17, 9:10am

Wed Aug 17, 8:10am

Wed Aug 17, 7:10am

Wed Aug 17, 6:10am

Wed Aug 17, 5:10am

Wed Aug 17, 4:10am

Wed Aug 17, 3:10am

Wed Aug 17, 2:10am

Wed Aug 17, 1:10am

Wed Aug 17, 12:10am

Tue Aug 16, 11:10pm

Tue Aug 16, 10:10pm

Tue Aug 16, 9:10pm

Tue Aug 16, 8:10pm

Tue Aug 16, 7:10pm

Tue Aug 16, 6:10pm

Tue Aug 16, 5:10pm

Tue Aug 16, 4:10pm

Tue Aug 16, 3:10pm

Tue Aug 16, 2:10pm

Tue Aug 16, 1:10pm

Tue Aug 16, 12:10pm

Tue Aug 16, 11:10am

Tue Aug 16, 10:10am

Tue Aug 16, 9:10am

Tue Aug 16, 8:10am

Tue Aug 16, 7:10am

Tue Aug 16, 6:10am

Tue Aug 16, 5:10am

Tue Aug 16, 4:10am

Tue Aug 16, 3:10am

Tue Aug 16, 2:10am

Tue Aug 16, 1:10am

Tue Aug 16, 12:10am

Mon Aug 15, 11:10pm

Mon Aug 15, 10:10pm

Mon Aug 15, 9:10pm

Mon Aug 15, 8:10pm

Mon Aug 15, 7:10pm

Mon Aug 15, 6:10pm

Mon Aug 15, 5:10pm

Mon Aug 15, 4:10pm

Mon Aug 15, 3:10pm

Mon Aug 15, 2:10pm

Mon Aug 15, 1:10pm

Mon Aug 15, 12:10pm

Mon Aug 15, 11:10am

Mon Aug 15, 10:10am

Mon Aug 15, 9:10am

Mon Aug 15, 8:10am

Mon Aug 15, 7:10am

Mon Aug 15, 6:10am

Mon Aug 15, 5:10am

Mon Aug 15, 4:10am

Mon Aug 15, 3:10am

Mon Aug 15, 2:10am

Mon Aug 15, 1:10am

Mon Aug 15, 12:10am

Sun Aug 14, 11:10pm

Sun Aug 14, 10:10pm

Sun Aug 14, 9:10pm

Sun Aug 14, 8:10pm

Sun Aug 14, 7:10pm

Sun Aug 14, 6:10pm

Sun Aug 14, 5:10pm

Sun Aug 14, 4:10pm

Sun Aug 14, 3:10pm

Sun Aug 14, 2:10pm

Sun Aug 14, 1:10pm

Sun Aug 14, 12:10pm

Sun Aug 14, 11:10am

Sun Aug 14, 10:10am

Sun Aug 14, 9:10am

Sun Aug 14, 8:10am

Sun Aug 14, 7:10am

Sun Aug 14, 6:10am

Sun Aug 14, 5:10am

Sun Aug 14, 4:10am

Sun Aug 14, 3:10am

Sun Aug 14, 2:10am

Sun Aug 14, 1:10am

Sun Aug 14, 12:10am

Sat Aug 13, 11:10pm

Sat Aug 13, 10:10pm

Sat Aug 13, 8:10pm

Sat Aug 13, 7:10pm

Sat Aug 13, 6:10pm

Sat Aug 13, 5:10pm

Sat Aug 13, 4:10pm

Sat Aug 13, 3:10pm

Sat Aug 13, 2:10pm

Sat Aug 13, 1:10pm

Sat Aug 13, 12:10pm

Sat Aug 13, 11:10am

Sat Aug 13, 10:10am

Sat Aug 13, 9:10am

Sat Aug 13, 8:10am

Sat Aug 13, 7:10am

Sat Aug 13, 6:10am

Sat Aug 13, 5:10am

Sat Aug 13, 4:10am

Sat Aug 13, 3:10am

Sat Aug 13, 2:10am

Sat Aug 13, 1:10am

Sat Aug 13, 12:10am

Fri Aug 12, 11:10pm

Fri Aug 12, 10:10pm

Fri Aug 12, 9:10pm

Fri Aug 12, 8:10pm

Fri Aug 12, 7:10pm

Fri Aug 12, 6:10pm

Fri Aug 12, 5:10pm

Fri Aug 12, 4:10pm

Fri Aug 12, 3:10pm

Fri Aug 12, 2:10pm

Fri Aug 12, 1:10pm

Fri Aug 12, 12:10pm

Fri Aug 12, 11:10am

Fri Aug 12, 10:10am

Fri Aug 12, 9:10am

Fri Aug 12, 8:10am

Fri Aug 12, 7:10am

Fri Aug 12, 6:10am

Fri Aug 12, 5:10am

Fri Aug 12, 4:10am

Fri Aug 12, 3:10am

Fri Aug 12, 2:10am

Fri Aug 12, 1:10am

Fri Aug 12, 12:10am

Thu Aug 11, 11:10pm

Thu Aug 11, 10:10pm

Thu Aug 11, 9:10pm

Thu Aug 11, 8:10pm

Thu Aug 11, 7:10pm

Thu Aug 11, 6:10pm

Thu Aug 11, 5:10pm

Thu Aug 11, 4:10pm

Thu Aug 11, 3:10pm

Thu Aug 11, 2:10pm

Thu Aug 11, 1:10pm

Thu Aug 11, 12:10pm

Thu Aug 11, 11:10am

Thu Aug 11, 10:10am

Thu Aug 11, 9:10am

Thu Aug 11, 8:10am

Thu Aug 11, 7:10am

Thu Aug 11, 6:10am

Thu Aug 11, 5:10am

Thu Aug 11, 4:10am

Thu Aug 11, 3:10am

Thu Aug 11, 2:10am

Thu Aug 11, 1:10am

Thu Aug 11, 12:10am

Wed Aug 10, 11:10pm

Wed Aug 10, 10:10pm

Wed Aug 10, 9:10pm

Wed Aug 10, 8:10pm

Wed Aug 10, 7:10pm

Wed Aug 10, 6:10pm

Meta data:

ID: af833092-e2a8-4119-9f07-4f643eadcd84
Link: https://api.weather.gov/products/af833092-e2a8-4119-9f07-4f643eadcd84